N926 ENMH-ULMM

Flight info

Callsign N926
Flight time 0h 59m
Altitude 20000
Route DCT
Aircraft PC12/L-VGDW/C

Departure

Time 2026-04-26 14:00
Airport Mehamn Airport (ENMH)

Arrival

Time 2026-04-26 15:00
Airport Emperor Nicholas II Murmansk Airport (ULMM)
Time Latitude Longitude Altitude Speed Heading
2026-04-26 13:37 71.02743 27.82873 39 ft 0 kts 100°
2026-04-26 13:37 71.02745 27.82831 39 ft 0 kts 100°
2026-04-26 13:55 71.02745 27.82838 39 ft 1 kts 95°
2026-04-26 13:56 71.02749 27.82870 39 ft 3 kts 40°
2026-04-26 13:56 71.02777 27.82844 38 ft 8 kts 325°
2026-04-26 13:56 71.02787 27.82703 43 ft 5 kts 246°
2026-04-26 13:56 71.02759 27.82649 46 ft 6 kts 191°
2026-04-26 13:57 71.02691 27.82616 45 ft 13 kts 187°
2026-04-26 13:57 71.02634 27.82589 48 ft 7 kts 188°
2026-04-26 13:57 71.02583 27.82583 50 ft 7 kts 177°
2026-04-26 13:57 71.02533 27.82583 48 ft 7 kts 161°
2026-04-26 13:58 71.02547 27.82629 49 ft 6 kts 322°
2026-04-26 13:58 71.02575 27.82616 50 ft 0 kts
2026-04-26 13:59 71.02618 27.82620 50 ft 23 kts
2026-04-26 13:59 71.03001 27.82663 41 ft 81 kts
2026-04-26 14:00 71.05072 27.84074 841 ft 110 kts 36°
2026-04-26 14:00 71.05496 27.86044 1246 ft 118 kts 69°
2026-04-26 14:00 71.05515 27.87796 1497 ft 128 kts 95°
2026-04-26 14:01 71.04956 27.91253 1938 ft 146 kts 119°
2026-04-26 14:01 71.04362 27.93974 2395 ft 157 kts 124°
2026-04-26 14:01 71.03657 27.96503 2967 ft 158 kts 130°
2026-04-26 14:01 71.02902 27.99258 3249 ft 176 kts 127°
2026-04-26 14:02 71.02096 28.02303 3563 ft 189 kts 127°
2026-04-26 14:02 71.01247 28.05531 3896 ft 199 kts 127°
2026-04-26 14:02 71.00346 28.08740 4214 ft 204 kts 136°
2026-04-26 14:02 70.99183 28.11313 4545 ft 209 kts 146°
2026-04-26 14:03 70.97948 28.13722 4869 ft 212 kts 146°
2026-04-26 14:03 70.96689 28.16142 5194 ft 215 kts 146°
2026-04-26 14:03 70.95419 28.18574 5520 ft 216 kts 146°
2026-04-26 14:03 70.94133 28.21015 5845 ft 218 kts 148°
2026-04-26 14:04 70.92756 28.22983 6167 ft 219 kts 156°
2026-04-26 14:04 70.91337 28.24720 6492 ft 220 kts 157°
2026-04-26 14:04 70.89929 28.26417 6812 ft 220 kts 157°
2026-04-26 14:04 70.88503 28.28131 7140 ft 221 kts 158°
2026-04-26 14:05 70.87072 28.29854 7462 ft 221 kts 157°
2026-04-26 14:05 70.85641 28.31573 7787 ft 221 kts 158°
2026-04-26 14:05 70.84208 28.33299 8115 ft 222 kts 158°
2026-04-26 14:05 70.82768 28.35033 8436 ft 223 kts 157°
2026-04-26 14:06 70.81328 28.36762 8762 ft 223 kts 158°
2026-04-26 14:06 70.79888 28.38496 9085 ft 223 kts 158°
2026-04-26 14:06 70.78463 28.40211 9408 ft 223 kts 158°
2026-04-26 14:06 70.77018 28.41955 9732 ft 224 kts 158°
2026-04-26 14:07 70.75566 28.43719 9971 ft 229 kts 158°
2026-04-26 14:07 70.74049 28.45567 9972 ft 240 kts 158°
2026-04-26 14:07 70.72475 28.47492 9975 ft 247 kts 158°
2026-04-26 14:07 70.70865 28.49459 9976 ft 251 kts 158°
2026-04-26 14:08 70.69235 28.51448 9977 ft 254 kts 158°
2026-04-26 14:08 70.67590 28.53452 10031 ft 254 kts 158°
2026-04-26 14:08 70.65988 28.55402 10349 ft 244 kts 158°
2026-04-26 14:08 70.64461 28.57266 10654 ft 237 kts 158°
2026-04-26 14:09 70.62946 28.59121 10990 ft 233 kts 158°
2026-04-26 14:09 70.61454 28.60953 11313 ft 230 kts 158°
2026-04-26 14:09 70.59980 28.62777 11632 ft 228 kts 158°
2026-04-26 14:09 70.58513 28.64606 11962 ft 228 kts 158°
2026-04-26 14:10 70.57062 28.66495 12287 ft 227 kts 154°
2026-04-26 14:10 70.55656 28.68622 12610 ft 226 kts 152°
2026-04-26 14:10 70.54258 28.70781 12938 ft 226 kts 152°
2026-04-26 14:10 70.52878 28.72910 13256 ft 226 kts 152°
2026-04-26 14:11 70.50079 28.77203 13905 ft 226 kts 152°
2026-04-26 14:11 70.48681 28.79340 14231 ft 225 kts 152°
2026-04-26 14:11 70.47284 28.81468 14555 ft 225 kts 152°
2026-04-26 14:12 70.45887 28.83589 14880 ft 225 kts 152°
2026-04-26 14:12 70.44490 28.85701 15205 ft 225 kts 152°
2026-04-26 14:12 70.43091 28.87810 15530 ft 225 kts 152°
2026-04-26 14:12 70.41710 28.89882 15850 ft 225 kts 152°
2026-04-26 14:13 70.38908 28.94068 16498 ft 225 kts 152°
2026-04-26 14:13 70.37507 28.96150 16828 ft 225 kts 152°
2026-04-26 14:13 70.36109 28.98223 17149 ft 224 kts 152°
2026-04-26 14:14 70.34709 29.00287 17475 ft 225 kts 152°
2026-04-26 14:14 70.33310 29.02345 17799 ft 224 kts 152°
2026-04-26 14:14 70.31930 29.04368 18119 ft 224 kts 152°
2026-04-26 14:14 70.30530 29.06412 18443 ft 224 kts 152°
2026-04-26 14:15 70.29132 29.08448 18768 ft 224 kts 152°
2026-04-26 14:15 70.27733 29.10480 19093 ft 224 kts 152°
2026-04-26 14:15 70.26335 29.12506 19418 ft 224 kts 152°
2026-04-26 14:15 70.24936 29.14526 19739 ft 224 kts 152°
2026-04-26 14:16 70.23531 29.16552 19962 ft 229 kts 152°
2026-04-26 14:16 70.22054 29.18675 19964 ft 242 kts 153°
2026-04-26 14:16 70.20510 29.20889 19968 ft 251 kts 153°
2026-04-26 14:16 70.18941 29.23137 19970 ft 257 kts 153°
2026-04-26 14:17 70.17317 29.25471 19972 ft 262 kts 153°
2026-04-26 14:17 70.15664 29.27790 19973 ft 265 kts 154°
2026-04-26 14:17 70.13975 29.30036 19973 ft 267 kts 155°
2026-04-26 14:17 70.12273 29.32276 19974 ft 269 kts 155°
2026-04-26 14:18 70.10564 29.34519 19975 ft 270 kts 155°
2026-04-26 14:18 70.08845 29.36773 19975 ft 271 kts 155°
2026-04-26 14:18 70.07147 29.39000 19974 ft 271 kts 155°
2026-04-26 14:18 70.05424 29.41257 19974 ft 271 kts 155°
2026-04-26 14:19 70.03695 29.43520 19899 ft 274 kts 155°
2026-04-26 14:19 70.01942 29.45814 19790 ft 277 kts 155°
2026-04-26 14:19 70.00193 29.48102 19786 ft 274 kts 155°
2026-04-26 14:19 69.98457 29.50379 19787 ft 273 kts 155°
2026-04-26 14:20 69.96724 29.52655 19786 ft 273 kts 155°
2026-04-26 14:20 69.94992 29.54926 19785 ft 273 kts 155°
2026-04-26 14:20 69.93262 29.57192 19785 ft 272 kts 155°
2026-04-26 14:20 69.91559 29.59419 19785 ft 272 kts 155°
2026-04-26 14:21 69.89831 29.61677 19787 ft 272 kts 155°
2026-04-26 14:21 69.88103 29.63933 19786 ft 272 kts 155°
2026-04-26 14:21 69.86375 29.66187 19786 ft 272 kts 155°
2026-04-26 14:21 69.84651 29.68437 19786 ft 271 kts 155°
2026-04-26 14:22 69.82931 29.70682 19785 ft 271 kts 155°
2026-04-26 14:22 69.81212 29.72923 19785 ft 271 kts 155°
2026-04-26 14:22 69.79493 29.75163 19786 ft 271 kts 155°
2026-04-26 14:22 69.77798 29.77375 19785 ft 271 kts 155°
2026-04-26 14:23 69.76080 29.79613 19785 ft 271 kts 155°
2026-04-26 14:23 69.74363 29.81848 19785 ft 271 kts 155°
2026-04-26 14:23 69.72644 29.84083 19786 ft 271 kts 155°
2026-04-26 14:23 69.70925 29.86316 19786 ft 271 kts 155°
2026-04-26 14:24 69.69208 29.88546 19785 ft 271 kts 155°
2026-04-26 14:24 69.67488 29.90777 19785 ft 271 kts 155°
2026-04-26 14:24 69.65794 29.92973 19785 ft 271 kts 155°
2026-04-26 14:24 69.64075 29.95197 19786 ft 271 kts 155°
2026-04-26 14:25 69.62355 29.97420 19786 ft 271 kts 155°
2026-04-26 14:25 69.60636 29.99643 19785 ft 271 kts 155°
2026-04-26 14:25 69.58918 30.01862 19785 ft 271 kts 155°
2026-04-26 14:25 69.57200 30.04081 19785 ft 271 kts 155°
2026-04-26 14:26 69.55482 30.06297 19785 ft 271 kts 155°
2026-04-26 14:26 69.53763 30.08514 19786 ft 271 kts 155°
2026-04-26 14:26 69.52068 30.10700 19785 ft 271 kts 155°
2026-04-26 14:26 69.50350 30.12913 19786 ft 271 kts 155°
2026-04-26 14:27 69.48633 30.15125 19785 ft 271 kts 155°
2026-04-26 14:27 69.46916 30.17336 19785 ft 271 kts 155°
2026-04-26 14:27 69.45199 30.19546 19785 ft 271 kts 155°
2026-04-26 14:27 69.43482 30.21757 19785 ft 271 kts 155°
2026-04-26 14:28 69.41762 30.23965 19785 ft 271 kts 155°
2026-04-26 14:28 69.40041 30.26171 19786 ft 272 kts 155°
2026-04-26 14:28 69.38339 30.28353 19785 ft 272 kts 155°
2026-04-26 14:28 69.36617 30.30559 19786 ft 272 kts 155°
2026-04-26 14:29 69.34893 30.32768 19785 ft 272 kts 155°
2026-04-26 14:29 69.33167 30.34977 19785 ft 272 kts 155°
2026-04-26 14:29 69.31444 30.37182 19785 ft 272 kts 155°
2026-04-26 14:29 69.29719 30.39388 19786 ft 272 kts 155°
2026-04-26 14:30 69.27994 30.41592 19786 ft 272 kts 155°
2026-04-26 14:30 69.26269 30.43795 19786 ft 272 kts 155°
2026-04-26 14:30 69.24568 30.45966 19785 ft 272 kts 155°
2026-04-26 14:30 69.22846 30.48163 19785 ft 272 kts 155°
2026-04-26 14:31 69.21125 30.50357 19785 ft 272 kts 155°
2026-04-26 14:31 69.19402 30.52553 19785 ft 272 kts 155°
2026-04-26 14:31 69.17680 30.54748 19785 ft 272 kts 155°
2026-04-26 14:31 69.15958 30.56943 19786 ft 271 kts 154°
2026-04-26 14:32 69.14411 30.59851 19781 ft 267 kts 135°
2026-04-26 14:32 69.13157 30.63580 19783 ft 267 kts 129°
2026-04-26 14:32 69.11938 30.67510 19784 ft 267 kts 129°
2026-04-26 14:32 69.10725 30.71466 19723 ft 268 kts 129°
2026-04-26 14:33 69.09504 30.75435 19471 ft 270 kts 129°
2026-04-26 14:33 69.08275 30.79425 19222 ft 271 kts 129°
2026-04-26 14:33 69.07044 30.83418 18969 ft 271 kts 129°
2026-04-26 14:33 69.05811 30.87418 18722 ft 272 kts 129°
2026-04-26 14:34 69.04579 30.91416 18472 ft 271 kts 129°
2026-04-26 14:34 69.03350 30.95407 18221 ft 271 kts 129°
2026-04-26 14:34 69.02140 30.99334 17975 ft 270 kts 129°
2026-04-26 14:34 69.00914 31.03309 17727 ft 270 kts 129°
2026-04-26 14:35 68.99692 31.07275 17474 ft 270 kts 129°
2026-04-26 14:35 68.98469 31.11242 17216 ft 270 kts 129°
2026-04-26 14:35 68.97248 31.15200 16974 ft 269 kts 129°
2026-04-26 14:35 68.96028 31.19159 16724 ft 269 kts 129°
2026-04-26 14:36 68.94809 31.23112 16474 ft 269 kts 129°
2026-04-26 14:36 68.93591 31.27063 16223 ft 269 kts 129°
2026-04-26 14:36 68.92391 31.30953 15977 ft 268 kts 129°
2026-04-26 14:36 68.91176 31.34885 15726 ft 268 kts 129°
2026-04-26 14:37 68.89963 31.38809 15476 ft 268 kts 129°
2026-04-26 14:37 68.88749 31.42734 15226 ft 268 kts 129°
2026-04-26 14:37 68.87538 31.46648 14976 ft 267 kts 129°
2026-04-26 14:37 68.86329 31.50554 14725 ft 267 kts 129°
2026-04-26 14:38 68.85123 31.54450 14475 ft 266 kts 129°
2026-04-26 14:38 68.83919 31.58338 14226 ft 266 kts 129°
2026-04-26 14:38 68.82716 31.62221 13974 ft 266 kts 129°
2026-04-26 14:38 68.81531 31.66047 13731 ft 265 kts 129°
2026-04-26 14:39 68.80333 31.69914 13478 ft 265 kts 129°
2026-04-26 14:39 68.79135 31.73776 13227 ft 264 kts 129°
2026-04-26 14:39 68.77947 31.77594 12975 ft 257 kts 129°
2026-04-26 14:39 68.76806 31.81248 12723 ft 246 kts 129°
2026-04-26 14:40 68.75710 31.84747 12470 ft 237 kts 129°
2026-04-26 14:40 68.74647 31.88138 12219 ft 231 kts 129°
2026-04-26 14:40 68.73625 31.91387 11970 ft 224 kts 129°
2026-04-26 14:40 68.72614 31.94593 11719 ft 219 kts 129°
2026-04-26 14:41 68.71622 31.97734 11467 ft 216 kts 129°
2026-04-26 14:41 68.70641 32.00826 11216 ft 213 kts 129°
2026-04-26 14:41 68.69669 32.03880 10966 ft 211 kts 129°
2026-04-26 14:41 68.68710 32.06882 10714 ft 207 kts 129°
2026-04-26 14:42 68.67772 32.09801 10462 ft 201 kts 129°
2026-04-26 14:42 68.66862 32.12613 10210 ft 193 kts 129°
2026-04-26 14:42 68.65993 32.15285 9961 ft 187 kts 129°
2026-04-26 14:42 68.65132 32.17916 9708 ft 183 kts 129°
2026-04-26 14:43 68.64290 32.20481 9458 ft 179 kts 129°
2026-04-26 14:43 68.63459 32.23002 9208 ft 177 kts 129°
2026-04-26 14:43 68.62640 32.25482 8964 ft 171 kts 129°
2026-04-26 14:43 68.61854 32.27845 8717 ft 165 kts 129°
2026-04-26 14:44 68.61087 32.30148 8465 ft 163 kts 129°
2026-04-26 14:44 68.60336 32.32403 8218 ft 162 kts 129°
2026-04-26 14:44 68.59580 32.34672 7968 ft 161 kts 129°
2026-04-26 14:44 68.58826 32.36931 7720 ft 161 kts 129°
2026-04-26 14:45 68.58072 32.39195 7466 ft 161 kts 129°
2026-04-26 14:45 68.57575 32.40688 7304 ft 160 kts 129°
2026-04-26 14:45 68.56576 32.43703 6969 ft 160 kts 129°
2026-04-26 14:45 68.55834 32.45940 6719 ft 157 kts 129°
2026-04-26 14:46 68.55118 32.48103 6466 ft 155 kts 129°
2026-04-26 14:46 68.54404 32.50266 6220 ft 153 kts 129°
2026-04-26 14:46 68.53690 32.52409 5969 ft 152 kts 129°
2026-04-26 14:46 68.52980 32.54562 5721 ft 153 kts 129°
2026-04-26 14:47 68.52272 32.56725 5470 ft 151 kts 126°
2026-04-26 14:47 68.52038 32.59331 5208 ft 140 kts 70°
2026-04-26 14:47 68.52448 32.61628 4961 ft 131 kts 54°
2026-04-26 14:47 68.52871 32.63704 4707 ft 122 kts 55°
2026-04-26 14:48 68.53270 32.65705 4457 ft 121 kts 55°
2026-04-26 14:48 68.53678 32.67746 4212 ft 128 kts 55°
2026-04-26 14:48 68.54115 32.69905 3967 ft 132 kts 55°
2026-04-26 14:48 68.54565 32.72118 3722 ft 134 kts 55°
2026-04-26 14:49 68.55021 32.74342 3470 ft 135 kts 56°
2026-04-26 14:49 68.55435 32.76343 3249 ft 136 kts 56°
2026-04-26 14:49 68.55902 32.78600 3000 ft 138 kts 55°
2026-04-26 14:49 68.56381 32.80870 2749 ft 138 kts 56°
2026-04-26 14:50 68.56923 32.82894 2602 ft 126 kts 33°
2026-04-26 14:50 68.57638 32.84111 2600 ft 119 kts 27°
2026-04-26 14:50 68.58334 32.85287 2550 ft 118 kts 27°
2026-04-26 14:50 68.58983 32.86627 2468 ft 120 kts 51°
2026-04-26 14:51 68.59337 32.88719 2395 ft 123 kts 61°
2026-04-26 14:51 68.59682 32.90877 2322 ft 125 kts 62°
2026-04-26 14:51 68.60039 32.93047 2249 ft 126 kts 61°
2026-04-26 14:51 68.60527 32.94874 2168 ft 119 kts 23°
2026-04-26 14:52 68.61312 32.95385 2098 ft 116 kts
2026-04-26 14:52 68.62110 32.95789 2017 ft 117 kts
2026-04-26 14:52 68.62901 32.96192 2006 ft 114 kts
2026-04-26 14:52 68.63643 32.96577 2006 ft 102 kts
2026-04-26 14:53 68.64306 32.96940 1999 ft 94 kts
2026-04-26 14:53 68.64913 32.97560 1992 ft 93 kts 22°
2026-04-26 14:53 68.65514 32.98181 1990 ft 92 kts 351°
2026-04-26 14:53 68.66054 32.97324 2002 ft 94 kts 326°
2026-04-26 14:54 68.66607 32.96346 2006 ft 94 kts 326°
2026-04-26 14:54 68.67134 32.95395 2004 ft 89 kts 324°
2026-04-26 14:54 68.67638 32.94471 2000 ft 87 kts 326°
2026-04-26 14:54 68.68135 32.93559 2002 ft 85 kts 324°
2026-04-26 14:55 68.68632 32.92654 2002 ft 86 kts 324°
2026-04-26 14:55 68.69131 32.91741 2001 ft 86 kts 326°
2026-04-26 14:55 68.69617 32.90849 2002 ft 85 kts 325°
2026-04-26 14:55 68.70120 32.89930 1958 ft 90 kts 326°
2026-04-26 14:56 68.70651 32.88956 1842 ft 93 kts 325°
2026-04-26 14:56 68.71179 32.87988 1718 ft 90 kts 324°
2026-04-26 14:56 68.71688 32.87056 1601 ft 86 kts 324°
2026-04-26 14:56 68.72186 32.86140 1489 ft 87 kts 324°
2026-04-26 14:57 68.72692 32.85212 1371 ft 88 kts 324°
2026-04-26 14:57 68.73191 32.84299 1257 ft 84 kts 324°
2026-04-26 14:57 68.73676 32.83407 1144 ft 83 kts 324°
2026-04-26 14:57 68.74146 32.82542 1039 ft 82 kts 324°
2026-04-26 14:58 68.74620 32.81668 930 ft 82 kts 324°
2026-04-26 14:58 68.75099 32.80787 819 ft 82 kts 324°
2026-04-26 14:58 68.75570 32.79920 713 ft 81 kts 324°
2026-04-26 14:58 68.76030 32.79073 604 ft 78 kts 324°
2026-04-26 14:59 68.76478 32.78246 502 ft 77 kts 324°
2026-04-26 14:59 68.76920 32.77454 414 ft 76 kts 327°
2026-04-26 14:59 68.77363 32.76691 323 ft 76 kts 324°
2026-04-26 14:59 68.77650 32.76155 278 ft 71 kts 324°
2026-04-26 15:00 68.78130 32.75265 259 ft 36 kts 327°
2026-04-26 15:00 68.78200 32.75143 260 ft 11 kts 327°
2026-04-26 15:00 68.78282 32.75054 260 ft 12 kts 16°
2026-04-26 15:00 68.78329 32.75206 258 ft 9 kts 55°
2026-04-26 15:01 68.78339 32.75250 258 ft 0 kts 56°